[Date Prev][Date Next][Thread Prev][Thread Next] - [Date Index][Thread Index][Author Index]

2 Line ISS Keps 5-29



ISS
1 25544U 98067A   04150.36422574  .00017772  00000-0  15841-3 0  8808
2 25544  51.6323  61.6688 0006124 166.2733 299.0295 15.68523020315364


----
Via the sarex mailing list at AMSAT.ORG courtesy of AMSAT-NA.
To unsubscribe, send "unsubscribe sarex" to Majordomo@amsat.org



AMSAT Top AMSAT Home